When you browse on this site, cookies collect data to enhance your experience and personalize the content and advertising you see.
Visit our Privacy Policy to learn more. By continuing to use the site, you agree to this use of cookies and data.
  • In Italy
  • List of Countries
  • For 7 days
  • Water Temperature
  • Satellite Maps
  • Weather Map
  • Weather Widgets
  • user-avatar
    Login

    Hourly Weather Bedomin

    Today, 19 April, Friday

    Time Temperature Precipitation Wind Pressure Humidity
    00:00 +6°C° 0 mm 2 mps 759 mmHg 61%
    01:00 +5°C° 0 mm 2 mps 759 mmHg 62%
    02:00 +5°C° 0 mm 2 mps 759 mmHg 61%
    03:00 +5°C° 0 mm 2 mps 759 mmHg 61%
    04:00 +4°C° 0 mm 2 mps 759 mmHg 60%
    05:00 +6°C° 0 mm 2 mps 759 mmHg 59%
    06:00 +7°C° 0 mm 2 mps 759 mmHg 57%
    07:00 +8°C° 0 mm 2 mps 759 mmHg 56%
    08:00 +10°C° 0 mm 2 mps 759 mmHg 52%
    09:00 +14°C° 0 mm 2 mps 760 mmHg 49%
    10:00 +16°C° 0 mm 2 mps 760 mmHg 45%
    11:00 +17°C° 0 mm 2 mps 760 mmHg 43%
    12:00 +17°C° 0 mm 2 mps 760 mmHg 40%
    13:00 +18°C° 0 mm 3 mps 760 mmHg 38%
    14:00 +18°C° 0 mm 3 mps 759 mmHg 39%
    15:00 +17°C° 0 mm 3 mps 759 mmHg 41%
    16:00 +17°C° 0 mm 4 mps 759 mmHg 43%
    17:00 +13°C° 0 mm 3 mps 759 mmHg 47%
    18:00 +11°C° 0 mm 3 mps 758 mmHg 51%
    19:00 +9°C° 0 mm 2 mps 758 mmHg 55%
    20:00 +8°C° 0 mm 2 mps 758 mmHg 55%
    21:00 +7°C° 0 mm 2 mps 758 mmHg 54%
    22:00 +5°C° 0 mm 2 mps 758 mmHg 54%
    23:00 +5°C° 0 mm 2 mps 758 mmHg 56%

    Tomorrow, 20 April, Saturday

    Time Temperature Precipitation Wind Pressure Humidity
    00:00 +5°C° 0 mm 2 mps 758 mmHg 58%
    01:00 +4°C° 0 mm 2 mps 758 mmHg 60%
    02:00 +4°C° 0 mm 2 mps 758 mmHg 62%
    03:00 +4°C° 0 mm 2 mps 758 mmHg 65%
    04:00 +3°C° 0 mm 2 mps 757 mmHg 67%
    05:00 +5°C° 0 mm 2 mps 757 mmHg 66%
    06:00 +6°C° 0 mm 2 mps 757 mmHg 64%
    07:00 +7°C° 0 mm 2 mps 757 mmHg 63%
    08:00 +9°C° 0 mm 3 mps 757 mmHg 59%
    09:00 +11°C° 0 mm 3 mps 757 mmHg 55%
    10:00 +13°C° 0 mm 3 mps 757 mmHg 50%
    11:00 +14°C° 0 mm 3 mps 757 mmHg 46%
    12:00 +16°C° 0 mm 3 mps 757 mmHg 42%
    13:00 +17°C° 0 mm 3 mps 757 mmHg 38%
    14:00 +17°C° 0 mm 3 mps 756 mmHg 39%
    15:00 +15°C° 0 mm 4 mps 756 mmHg 40%
    16:00 +15°C° 0 mm 4 mps 755 mmHg 40%
    17:00 +13°C° 0 mm 3 mps 755 mmHg 45%
    18:00 +11°C° 0 mm 3 mps 755 mmHg 50%
    19:00 +9°C° 0 mm 2 mps 755 mmHg 55%
    20:00 +9°C° 0 mm 2 mps 755 mmHg 54%
    21:00 +8°C° 0 mm 2 mps 754 mmHg 53%
    22:00 +7°C° 0 mm 2 mps 754 mmHg 53%
    23:00 +6°C° 0 mm 2 mps 754 mmHg 52%

    Day after tomorrow, 21 April, Sunday

    Time Temperature Precipitation Wind Pressure Humidity
    00:00 +6°C° 0 mm 2 mps 754 mmHg 51%
    01:00 +6°C° 0 mm 2 mps 753 mmHg 50%
    02:00 +5°C° 0 mm 2 mps 753 mmHg 50%
    03:00 +5°C° 0 mm 2 mps 753 mmHg 51%
    04:00 +5°C° 0 mm 2 mps 752 mmHg 51%
    05:00 +6°C° 0 mm 2 mps 752 mmHg 49%
    06:00 +9°C° 0 mm 1 mps 752 mmHg 47%
    07:00 +10°C° 0 mm 1 mps 752 mmHg 46%
    08:00 +12°C° 0 mm 2 mps 752 mmHg 42%
    09:00 +14°C° 0 mm 2 mps 752 mmHg 38%
    10:00 +16°C° 0 mm 2 mps 751 mmHg 35%
    11:00 +16°C° 0 mm 3 mps 751 mmHg 35%
    12:00 +17°C° 0 mm 3 mps 751 mmHg 35%
    13:00 +18°C° 0 mm 3 mps 750 mmHg 34%
    14:00 +17°C° 0 mm 3 mps 750 mmHg 37%
    15:00 +16°C° 0 mm 3 mps 750 mmHg 39%
    16:00 +15°C° 0 mm 4 mps 749 mmHg 41%
    17:00 +13°C° 0 mm 3 mps 749 mmHg 46%
    18:00 +11°C° 0 mm 3 mps 749 mmHg 51%
    19:00 +9°C° 0 mm 3 mps 749 mmHg 56%
    20:00 +9°C° 0 mm 3 mps 749 mmHg 57%
    21:00 +8°C° 0 mm 2 mps 749 mmHg 58%
    22:00 +8°C° 0 mm 2 mps 749 mmHg 59%
    23:00 +7°C° 0 mm 2 mps 749 mmHg 62%

    22 April, Monday

    Time Temperature Precipitation Wind Pressure Humidity
    00:00 +6°C° 0 mm 2 mps 748 mmHg 66%
    01:00 +5°C° 0 mm 2 mps 748 mmHg 69%
    02:00 +5°C° 0 mm 2 mps 748 mmHg 72%
    03:00 +5°C° 0 mm 2 mps 748 mmHg 75%
    04:00 +4°C° 0 mm 2 mps 748 mmHg 78%
    05:00 +4°C° 0 mm 3 mps 748 mmHg 76%
    06:00 +7°C° 0 mm 3 mps 748 mmHg 74%
    07:00 +7°C° 0 mm 4 mps 748 mmHg 72%
    08:00 +8°C° 0 mm 5 mps 748 mmHg 70%
    09:00 +9°C° 0 mm 5 mps 748 mmHg 68%
    10:00 +10°C° 0 mm 6 mps 749 mmHg 66%
    11:00 +11°C° 0 mm 6 mps 749 mmHg 64%
    12:00 +11°C° 0 mm 6 mps 749 mmHg 61%
    13:00 +13°C° 0 mm 6 mps 749 mmHg 58%
    14:00 +13°C° 0.1 mm 6 mps 748 mmHg 57%
    15:00 +14°C° 0.1 mm 5 mps 748 mmHg 55%
    16:00 +15°C° 0.1 mm 5 mps 748 mmHg 53%
    17:00 +14°C° 0 mm 5 mps 747 mmHg 60%
    18:00 +13°C° 0 mm 5 mps 747 mmHg 66%
    19:00 +10°C° 0 mm 5 mps 747 mmHg 73%
    20:00 +10°C° 0 mm 5 mps 747 mmHg 73%
    21:00 +10°C° 0 mm 6 mps 747 mmHg 73%
    22:00 +9°C° 0 mm 6 mps 747 mmHg 74%
    23:00 +9°C° 0.1 mm 7 mps 746 mmHg 74%

    23 April, Tuesday

    Time Temperature Precipitation Wind Pressure Humidity
    00:00 +9°C° 0.1 mm 7 mps 746 mmHg 75%
    01:00 +9°C° 0.1 mm 7 mps 746 mmHg 76%
    02:00 +9°C° 0 mm 7 mps 745 mmHg 73%
    03:00 +7°C° 0 mm 8 mps 745 mmHg 70%
    04:00 +7°C° 0 mm 8 mps 745 mmHg 68%
    05:00 +7°C° 0 mm 8 mps 745 mmHg 66%
    06:00 +9°C° 0 mm 8 mps 745 mmHg 65%
    07:00 +10°C° 0 mm 9 mps 745 mmHg 63%
    08:00 +10°C° 0 mm 9 mps 745 mmHg 62%
    09:00 +11°C° 0 mm 9 mps 745 mmHg 61%
    10:00 +12°C° 0 mm 9 mps 745 mmHg 60%
    11:00 +13°C° 0 mm 9 mps 745 mmHg 55%
    12:00 +16°C° 0 mm 10 mps 745 mmHg 51%
    13:00 +17°C° 0 mm 10 mps 745 mmHg 46%
    14:00 +17°C° 0 mm 10 mps 744 mmHg 46%
    15:00 +17°C° 0 mm 10 mps 744 mmHg 45%
    16:00 +17°C° 0 mm 9 mps 744 mmHg 44%
    17:00 +16°C° 0 mm 9 mps 744 mmHg 46%
    18:00 +15°C° 0 mm 8 mps 744 mmHg 49%
    19:00 +13°C° 0 mm 8 mps 744 mmHg 51%
    20:00 +14°C° 0 mm 7 mps 744 mmHg 53%
    21:00 +12°C° 0 mm 7 mps 744 mmHg 56%
    22:00 +11°C° 0 mm 6 mps 744 mmHg 59%
    23:00 +11°C° 0 mm 6 mps 744 mmHg 59%

    24 April, Wednesday

    Time Temperature Precipitation Wind Pressure Humidity
    00:00 +11°C° 0 mm 6 mps 744 mmHg 60%
    01:00 +10°C° 0 mm 6 mps 744 mmHg 61%
    02:00 +10°C° 0 mm 5 mps 744 mmHg 61%
    03:00 +10°C° 0 mm 5 mps 744 mmHg 62%
    04:00 +9°C° 0 mm 5 mps 745 mmHg 62%
    05:00 +10°C° 0 mm 5 mps 745 mmHg 61%
    06:00 +10°C° 0 mm 5 mps 745 mmHg 60%
    07:00 +11°C° 0 mm 6 mps 745 mmHg 59%
    08:00 +13°C° 0 mm 6 mps 746 mmHg 57%
    09:00 +15°C° 0 mm 6 mps 746 mmHg 54%
    10:00 +16°C° 0 mm 6 mps 746 mmHg 51%
    11:00 +17°C° 0 mm 6 mps 746 mmHg 50%
    12:00 +20°C° 0 mm 6 mps 746 mmHg 48%
    13:00 +21°C° 0 mm 6 mps 746 mmHg 47%
    14:00 +21°C° 0 mm 6 mps 746 mmHg 48%
    15:00 +21°C° 0 mm 6 mps 746 mmHg 49%
    16:00 +21°C° 0 mm 5 mps 746 mmHg 49%
    17:00 +20°C° 0 mm 5 mps 746 mmHg 55%
    18:00 +19°C° 0 mm 4 mps 746 mmHg 61%
    19:00 +17°C° 0 mm 3 mps 746 mmHg 66%
    20:00 +16°C° 0 mm 3 mps 747 mmHg 69%
    21:00 +16°C° 0 mm 3 mps 747 mmHg 72%
    22:00 +14°C° 0 mm 3 mps 747 mmHg 75%
    23:00 +13°C° 0 mm 3 mps 747 mmHg 78%
    Show more